Tracking 22283 objects as of 28-Jan-2021
HD Live streaming from Space Station
objects crossing your sky now

HETE 2

Track HETE 2 now!
10-day predictions
HETE 2 is classified as:


NORAD ID: 26561
Int'l Code: 2000-061A
Perigee: 535.9 km
Apogee: 560.3 km
Inclination: 1.9 °
Period: 95.5 minutes
Semi major axis: 6919 km
RCS: 0.631 m2 (medium)
Launch date: October 9, 2000
Source: United States (US)
Launch site: Kwajalein (KWAJ)

Designed to detect and localize gamma-ray bursts.
aabbcc
Your satellite tracking list
Your tracking list is empty




NASA's NSSDC Master Catalog

Two Line Element Set (TLE):
1 26561U 00061A   21027.60494391  .00001673  00000-0  47920-4 0  9998
2 26561   1.9479 189.9648 0017670  44.1880 315.9572 15.08440602114450
Source of the keplerian elements: AFSPC